DMSP 5D-2 F13 DEB

Satellite information

Favourite Embed

Satellite Type and Status

DEBRISIN ORBIT

Key statistics

Satellite DMSP 5D-2 F13 DEB at a glance.

Uptime

11063

Days in orbit

Revolutions

≈ 14.3

Per day

Orbit

SSO

Sun Synchronous Orbit

Inclination

98.9

Latest

Satellite identification and parameters

Extended collection of information and parameters for DMSP 5D-2 F13 DEB.

Object identification

Identified? True

Debris? True

Object name: DMSP 5D-2 F13 DEB

International designator: 1995-015GY

Object number (NORAD): 42282

Object ID (CCSDS): 42282

Country: UNITED STATES OF AMERICA (US)

Current information (Y/N): Y

RCS size: SMALL

Orbital parameters

Period: 100.891 minutes

Inclination: 98.9459 deg

SMA: 7178.988 km

Apoapsis: 822.449 km

Periapsis: 779.256 km

RAAN: 193.9725 deg

Eccentricy: 0.0030083

Argument of periapsis: 232.8737 deg

Mean anomaly: 126.9693 deg

Mean motion: 14.27275925 rev/day

Mean motion (dot): 0.00003138 rev/day2

B* drag term: 0.0012951 1/REarth

Two-line elements (TLE)

Creation date: July 5, 2025, 5:45 p.m.

Reference frame: TEME

Reference center: EARTH

Epoch: July 5, 2025, 11:20 a.m. UTC

TLE line 0: 0 DMSP 5D-2 F13 DEB

TLE line 1: 1 42282U 95015GY 25186.47224891 .00003138 00000-0 12951-2 0 9992

TLE line 2: 2 42282 98.9459 193.9725 0030083 232.8737 126.9693 14.27275925525839

Live tracking on map

Real-time ground track for satellite DMSP 5D-2 F13 DEB.

In-orbit conjunctions

A list of the most updated potential collisions computed for object DMSP 5D-2 F13 DEB.

Target Orbit TCA Probability of collision Miss distance Type
CZ-6A DEB LEO 2025-06-14 16:28:29 0.0002350057 133.0 (m) DEBRIS
SL-3 R/B LEO 2025-03-04 07:13:00 0.0002005396 526.0 (m) ROCKET BODY
THOR ABLESTAR DEB LEO 2024-11-14 09:43:49 0.0001065522 561.0 (m) DEBRIS

Associated space launch

Military meteorological satellite

DMSP 5D-2 F13 DEB was lifted into orbit during the mission ‘Atlas E | DMSP-5D2 F13’, on board a Atlas E space rocket.

The launch took place on March 24, 1995, 2:05 p.m. from Space Launch Complex 3W.

For more information about the launch, click the button.

Launch to space Atlas E | DMSP-5D2 F13
Atlas E | DMSP-5D2 F13

Agency: N/A

Status: Launch Successful

Launch date: March 24, 1995, 2:05 p.m. UTC

Rocket: Atlas E

Launch pad: Space Launch Complex 3W

Location: Vandenberg SFB, CA, USA

...

Latest news about this satellite

There are no fresh news available about this satellite. Check back as we update our databases every day.


Newsletter sign-up

Weekly statistics, charts and insights to help you stay on top of the space industry.